,,Stat6,,Stat2,,Stat8,,Stat9,,Stat10,,Wind1,,Wind1,
time,status,PA1M_AVG,status,PR1M_SUM,status,RH1M_AVG,status,SR1M_AVG,status,TA1M_AVG,status,W1dAve1m,status,W1sAve1m,
2009-05-08, 00:00:00,VALID,917.5,VALID,0,VALID,97.4901,VALID,0,VALID,20.9595,VALID,259,VALID,0,
2009-05-08, 00:01:00,VALID,917.484,VALID,0,VALID,97.9479,VALID,0.0169808,VALID,20.9622,VALID,256,VALID,0,
2009-05-08, 00:02:00,VALID,917.475,VALID,0,VALID,97.5346,VALID,-0.0339617,VALID,20.9335,VALID,252,VALID,0,
2009-05-08, 00:03:00,VALID,917.465,VALID,0,VALID,97.1976,VALID,0,VALID,20.8424,VALID,360,VALID,0,
2009-05-08, 00:04:00,VALID,917.447,VALID,0,VALID,97.321,VALID,0,VALID,20.7877,VALID,8,VALID,0,
2009-05-08, 00:05:00,VALID,917.442,VALID,0,VALID,97.4342,VALID,-0.0169808,VALID,20.719,VALID,8,VALID,0,
2009-05-08, 00:06:00,VALID,917.424,VALID,0,VALID,97.8055,VALID,0,VALID,20.6996,VALID,8,VALID,0,
2009-05-08, 00:07:00,VALID,917.431,VALID,0,VALID,98.0992,VALID,0,VALID,20.6644,VALID,8,VALID,0,
2009-05-08, 00:08:00,VALID,917.424,VALID,0,VALID,98.3802,VALID,0,VALID,20.6419,VALID,8,VALID,0,
2009-05-08, 00:09:00,VALID,917.414,VALID,0,VALID,99.0453,VALID,0,VALID,20.6184,VALID,8,VALID,0,
2009-05-08, 00:10:00,VALID,917.408,VALID,0,VALID,99.3288,VALID,-0.0169808,VALID,20.6154,VALID,8,VALID,0,
2009-05-08, 00:11:00,VALID,917.393,VALID,0,VALID,99.5158,VALID,-0.0169808,VALID,20.5892,VALID,8,VALID,0,
2009-05-08, 00:12:00,VALID,917.39,VALID,0,VALID,99.8515,VALID,-0.0169808,VALID,20.5697,VALID,8,VALID,0,
2009-05-08, 00:13:00,VALID,917.398,VALID,0,VALID,99.7243,VALID,0,VALID,20.5343,VALID,8,VALID,0,
2009-05-08, 00:14:00,VALID,917.396,VALID,0,VALID,99.8141,VALID,-0.0169808,VALID,20.5056,VALID,8,VALID,0,
2009-05-08, 00:15:00,VALID,917.394,VALID,0,VALID,100,VALID,0,VALID,20.5276,VALID,8,VALID,0,
2009-05-08, 00:16:00,VALID,917.382,VALID,0,VALID,100,VALID,-0.0509425,VALID,20.5378,VALID,8,VALID,0,
2009-05-08, 00:17:00,VALID,917.385,VALID,0,VALID,100,VALID,-0.0169808,VALID,20.5316,VALID,8,VALID,0,
2009-05-08, 00:18:00,VALID,917.383,VALID,0,VALID,100,VALID,-0.0339617,VALID,20.5218,VALID,8,VALID,0,
2009-05-08, 00:19:00,VALID,917.386,VALID,0,VALID,100,VALID,-0.0339617,VALID,20.4504,VALID,10,VALID,0,
2009-05-08, 00:20:00,VALID,917.393,VALID,0,VALID,100,VALID,-0.0509425,VALID,20.4018,VALID,29,VALID,0,
2009-05-08, 00:21:00,VALID,917.41,VALID,0,VALID,100,VALID,-0.0169808,VALID,20.3888,VALID,29,VALID,0,
2009-05-08, 00:22:00,VALID,917.411,VALID,0,VALID,100,VALID,-0.0509425,VALID,20.379,VALID,29,VALID,0,
2009-05-08, 00:23:00,VALID,917.424,VALID,0,VALID,100,VALID,-0.0339617,VALID,20.379,VALID,29,VALID,0,
2009-05-08, 00:24:00,VALID,917.431,VALID,0,VALID,100,VALID,0,VALID,20.3396,VALID,29,VALID,0,
2009-05-08, 00:25:00,VALID,917.45,VALID,0,VALID,100,VALID,-0.0169808,VALID,20.3204,VALID,29,VALID,0,
2009-05-08, 00:26:00,VALID,917.429,VALID,0,VALID,100,VALID,-0.0169808,VALID,20.2947,VALID,29,VALID,0,
2009-05-08, 00:27:00,VALID,917.417,VALID,0,VALID,100,VALID,-0.0169808,VALID,20.2555,VALID,29,VALID,0,
2009-05-08, 00:28:00,VALID,917.395,VALID,0,VALID,100,VALID,0,VALID,20.203,VALID,29,VALID,0,
2009-05-08, 00:29:00,VALID,917.361,VALID,0,VALID,100,VALID,-0.0339617,VALID,20.187,VALID,29,VALID,0,
2009-05-08, 00:30:00,VALID,917.329,VALID,0,VALID,100,VALID,-0.0339617,VALID,20.1743,VALID,29,VALID,0,
2009-05-08, 00:31:00,VALID,917.293,VALID,0,VALID,100,VALID,-0.0509425,VALID,20.1776,VALID,29,VALID,0,
2009-05-08, 00:32:00,VALID,917.266,VALID,0,VALID,100,VALID,-0.0169808,VALID,20.2038,VALID,29,VALID,0,
2009-05-08, 00:33:00,VALID,917.259,VALID,0,VALID,100,VALID,-0.0339617,VALID,20.2035,VALID,29,VALID,0,
2009-05-08, 00:34:00,VALID,917.257,VALID,0,VALID,100,VALID,-0.0339617,VALID,20.2068,VALID,29,VALID,0,
2009-05-08, 00:35:00,VALID,917.245,VALID,0,VALID,100,VALID,-0.0169808,VALID,20.2003,VALID,29,VALID,0,
2009-05-08, 00:36:00,VALID,917.229,VALID,0,VALID,100,VALID,-0.0169808,VALID,20.1973,VALID,29,VALID,0,
2009-05-08, 00:37:00,VALID,917.216,VALID,0,VALID,100,VALID,-0.118866,VALID,20.1561,VALID,29,VALID,0,
2009-05-08, 00:38:00,VALID,917.213,VALID,0,VALID,100,VALID,-0.101885,VALID,20.1237,VALID,29,VALID,0,
2009-05-08, 00:39:00,VALID,917.191,VALID,0,VALID,100,VALID,-0.0339617,VALID,20.1029,VALID,29,VALID,0,
2009-05-08, 00:40:00,VALID,917.165,VALID,0,VALID,100,VALID,-0.0169808,VALID,20.1192,VALID,29,VALID,0,
2009-05-08, 00:41:00,VALID,917.134,VALID,0,VALID,100,VALID,-0.0169808,VALID,20.1314,VALID,29,VALID,0,
2009-05-08, 00:42:00,VALID,917.086,VALID,0,VALID,100,VALID,-0.0169808,VALID,20.1841,VALID,29,VALID,0,
2009-05-08, 00:43:00,VALID,917.048,VALID,0,VALID,100,VALID,0,VALID,20.2095,VALID,29,VALID,0,
2009-05-08, 00:44:00,VALID,917.011,VALID,0,VALID,100,VALID,0.0169808,VALID,20.2322,VALID,29,VALID,0,
2009-05-08, 00:45:00,VALID,916.986,VALID,0,VALID,100,VALID,0,VALID,20.2582,VALID,29,VALID,0,
2009-05-08, 00:46:00,VALID,916.967,VALID,0,VALID,100,VALID,0,VALID,20.2649,VALID,29,VALID,0,
2009-05-08, 00:47:00,VALID,916.952,VALID,0,VALID,100,VALID,0,VALID,20.2222,VALID,29,VALID,0,
2009-05-08, 00:48:00,VALID,916.947,VALID,0,VALID,99.9138,VALID,0,VALID,20.1776,VALID,29,VALID,0,
2009-05-08, 00:49:00,VALID,916.943,VALID,0,VALID,99.8248,VALID,-0.0169808,VALID,20.1092,VALID,29,VALID,0,
2009-05-08, 00:50:00,VALID,916.943,VALID,0,VALID,99.9016,VALID,0.0169808,VALID,20.0467,VALID,29,VALID,0,
2009-05-08, 00:51:00,VALID,916.928,VALID,0,VALID,100,VALID,0,VALID,20.0403,VALID,29,VALID,0,
2009-05-08, 00:52:00,VALID,916.901,VALID,0,VALID,100,VALID,0,VALID,20.0338,VALID,29,VALID,0,
2009-05-08, 00:53:00,VALID,916.862,VALID,0,VALID,100,VALID,0,VALID,20.0275,VALID,29,VALID,0,
2009-05-08, 00:54:00,VALID,916.839,VALID,0,VALID,100,VALID,0,VALID,20.014,VALID,29,VALID,0,
2009-05-08, 00:55:00,VALID,916.801,VALID,0,VALID,100,VALID,0,VALID,20.0213,VALID,29,VALID,0,
2009-05-08, 00:56:00,VALID,916.78,VALID,0,VALID,100,VALID,0.0169808,VALID,20.018,VALID,29,VALID,0,
2009-05-08, 00:57:00,VALID,916.795,VALID,0,VALID,100,VALID,0.0169808,VALID,20.0343,VALID,13,VALID,0,
2009-05-08, 00:58:00,VALID,916.782,VALID,0,VALID,100,VALID,0,VALID,20.0435,VALID,342,VALID,0,
2009-05-08, 00:59:00,VALID,916.794,VALID,0,VALID,100,VALID,-0.0169808,VALID,20.1024,VALID,304,VALID,0,
2009-05-08, 01:00:00,VALID,916.794,VALID,0,VALID,100,VALID,-0.0169808,VALID,20.1381,VALID,308,VALID,0,
2009-05-08, 01:01:00,VALID,916.795,VALID,0,VALID,100,VALID,-0.0339617,VALID,20.1648,VALID,327,VALID,0,
2009-05-08, 01:02:00,VALID,916.79,VALID,0,VALID,100,VALID,-0.0509425,VALID,20.1549,VALID,348,VALID,0,
2009-05-08, 01:03:00,VALID,916.78,VALID,0,VALID,100,VALID,-0.0169808,VALID,20.1159,VALID,348,VALID,0,
2009-05-08, 01:04:00,VALID,916.77,VALID,0,VALID,100,VALID,0,VALID,20.0792,VALID,348,VALID,0,
2009-05-08, 01:05:00,VALID,916.748,VALID,0,VALID,100,VALID,-0.0339617,VALID,20.0505,VALID,4,VALID,0,
2009-05-08, 01:06:00,VALID,916.757,VALID,0,VALID,100,VALID,0,VALID,19.9269,VALID,17,VALID,0,
2009-05-08, 01:07:00,VALID,916.767,VALID,0,VALID,100,VALID,-0.0339617,VALID,19.879,VALID,17,VALID,0,
2009-05-08, 01:08:00,VALID,916.765,VALID,0,VALID,100,VALID,-0.0169808,VALID,19.8693,VALID,17,VALID,0,
2009-05-08, 01:09:00,VALID,916.759,VALID,0,VALID,100,VALID,-0.0339617,VALID,19.8663,VALID,7,VALID,0,
2009-05-08, 01:10:00,VALID,916.759,VALID,0,VALID,100,VALID,-0.0169808,VALID,19.862,VALID,354,VALID,0,
2009-05-08, 01:11:00,VALID,916.763,VALID,0,VALID,100,VALID,-0.0169808,VALID,19.8555,VALID,6,VALID,0,
2009-05-08, 01:12:00,VALID,916.757,VALID,0,VALID,100,VALID,-0.0679233,VALID,19.8725,VALID,10,VALID,0,
2009-05-08, 01:13:00,VALID,916.75,VALID,0,VALID,100,VALID,0,VALID,19.9272,VALID,358,VALID,0.0701349,
2009-05-08, 01:14:00,VALID,916.735,VALID,0,VALID,100,VALID,-0.0169808,VALID,19.9893,VALID,1,VALID,0.0480469,
2009-05-08, 01:15:00,VALID,916.705,VALID,0,VALID,100,VALID,0,VALID,20.0183,VALID,17,VALID,0.00142045,
2009-05-08, 01:16:00,VALID,916.674,VALID,0,VALID,100,VALID,-0.0509425,VALID,20.0542,VALID,13,VALID,0,
2009-05-08, 01:17:00,VALID,916.639,VALID,0,VALID,100,VALID,-0.0169808,VALID,20.0665,VALID,357,VALID,0,
2009-05-08, 01:18:00,VALID,916.579,VALID,0,VALID,100,VALID,-0.0169808,VALID,20.0924,VALID,358,VALID,0,
2009-05-08, 01:19:00,VALID,916.546,VALID,0,VALID,100,VALID,0,VALID,20.0989,VALID,7,VALID,0,
2009-05-08, 01:20:00,VALID,916.513,VALID,0,VALID,100,VALID,-0.0339617,VALID,20.1284,VALID,16,VALID,0,
2009-05-08, 01:21:00,VALID,916.48,VALID,0,VALID,100,VALID,0.0339617,VALID,20.1319,VALID,16,VALID,0,
2009-05-08, 01:22:00,VALID,916.473,VALID,0,VALID,100,VALID,-0.0169808,VALID,20.1211,VALID,16,VALID,0,
2009-05-08, 01:23:00,VALID,916.449,VALID,0,VALID,100,VALID,-0.0169808,VALID,20.1346,VALID,26,VALID,0,
2009-05-08, 01:24:00,VALID,916.429,VALID,0,VALID,100,VALID,-0.0169808,VALID,20.1211,VALID,66,VALID,0,
2009-05-08, 01:25:00,VALID,916.402,VALID,0,VALID,100,VALID,-0.0169808,VALID,20.1216,VALID,66,VALID,0,
2009-05-08, 01:26:00,VALID,916.382,VALID,0,VALID,100,VALID,-0.0679233,VALID,20.0994,VALID,64,VALID,0,
2009-05-08, 01:27:00,VALID,916.375,VALID,0,VALID,100,VALID,-0.0339617,VALID,20.063,VALID,64,VALID,0,
2009-05-08, 01:28:00,VALID,916.371,VALID,0,VALID,100,VALID,-0.0339617,VALID,20.0435,VALID,64,VALID,0,
2009-05-08, 01:29:00,VALID,916.362,VALID,0,VALID,100,VALID,-0.0169808,VALID,20.0435,VALID,64,VALID,0,
2009-05-08, 01:30:00,VALID,916.362,VALID,0,VALID,100,VALID,0,VALID,20.0338,VALID,64,VALID,0,
2009-05-08, 01:31:00,VALID,916.351,VALID,0,VALID,100,VALID,-0.0509425,VALID,20.0078,VALID,64,VALID,0,
2009-05-08, 01:32:00,VALID,916.342,VALID,0,VALID,100,VALID,0,VALID,20.0148,VALID,64,VALID,0,
2009-05-08, 01:33:00,VALID,916.313,VALID,0,VALID,100,VALID,-0.0339617,VALID,20.0313,VALID,64,VALID,0,
2009-05-08, 01:34:00,VALID,916.307,VALID,0,VALID,100,VALID,-0.0849042,VALID,20.0443,VALID,64,VALID,0,
2009-05-08, 01:35:00,VALID,916.286,VALID,0,VALID,100,VALID,-0.0679233,VALID,20.057,VALID,64,VALID,0,
2009-05-08, 01:36:00,VALID,916.284,VALID,0,VALID,100,VALID,-0.0339617,VALID,20.0635,VALID,66,VALID,0,
2009-05-08, 01:37:00,VALID,916.289,VALID,0,VALID,100,VALID,-0.0339617,VALID,20.0927,VALID,66,VALID,0,
2009-05-08, 01:38:00,VALID,916.286,VALID,0,VALID,100,VALID,0,VALID,20.1249,VALID,64,VALID,0,
2009-05-08, 01:39:00,VALID,916.273,VALID,0,VALID,99.955,VALID,-0.0339617,VALID,20.1409,VALID,64,VALID,0,
2009-05-08, 01:40:00,VALID,916.266,VALID,0,VALID,99.6735,VALID,-0.0169808,VALID,20.1411,VALID,63,VALID,0,
2009-05-08, 01:41:00,VALID,916.235,VALID,0,VALID,99.5984,VALID,-0.0339617,VALID,20.1281,VALID,31,VALID,0,
2009-05-08, 01:42:00,VALID,916.217,VALID,0,VALID,99.6378,VALID,-0.0339617,VALID,20.1211,VALID,24,VALID,0,
2009-05-08, 01:43:00,VALID,916.206,VALID,0,VALID,99.5921,VALID,-0.0339617,VALID,20.1409,VALID,24,VALID,0,
2009-05-08, 01:44:00,VALID,916.209,VALID,0,VALID,99.5361,VALID,-0.0339617,VALID,20.1311,VALID,24,VALID,0,
2009-05-08, 01:45:00,VALID,916.195,VALID,0,VALID,99.6124,VALID,-0.0339617,VALID,20.1314,VALID,24,VALID,0,
2009-05-08, 01:46:00,VALID,916.195,VALID,0,VALID,99.6633,VALID,-0.0169808,VALID,20.1411,VALID,24,VALID,0,
2009-05-08, 01:47:00,VALID,916.195,VALID,0,VALID,99.5425,VALID,-0.0169808,VALID,20.1578,VALID,24,VALID,0,
2009-05-08, 01:48:00,VALID,916.192,VALID,0,VALID,99.3517,VALID,-0.0339617,VALID,20.1344,VALID,24,VALID,0,
2009-05-08, 01:49:00,VALID,916.175,VALID,0,VALID,99.311,VALID,-0.0169808,VALID,20.1216,VALID,24,VALID,0,
2009-05-08, 01:50:00,VALID,916.166,VALID,0,VALID,99.3072,VALID,-0.0509425,VALID,20.1186,VALID,24,VALID,0,
2009-05-08, 01:51:00,VALID,916.149,VALID,0,VALID,99.3034,VALID,-0.0169808,VALID,20.0987,VALID,24,VALID,0,
2009-05-08, 01:52:00,VALID,916.134,VALID,0,VALID,99.3772,VALID,-0.0679233,VALID,20.1057,VALID,24,VALID,0,
2009-05-08, 01:53:00,VALID,916.107,VALID,0,VALID,99.4878,VALID,-0.0679233,VALID,20.1189,VALID,24,VALID,0,
2009-05-08, 01:54:00,VALID,916.082,VALID,0,VALID,99.4585,VALID,-0.0339617,VALID,20.1386,VALID,24,VALID,0,
2009-05-08, 01:55:00,VALID,916.048,VALID,0,VALID,99.3632,VALID,-0.0509425,VALID,20.1186,VALID,24,VALID,0,
2009-05-08, 01:56:00,VALID,916.028,VALID,0,VALID,99.3276,VALID,-0.0169808,VALID,20.0957,VALID,24,VALID,0,
2009-05-08, 01:57:00,VALID,915.994,VALID,0,VALID,99.414,VALID,-0.0339617,VALID,20.073,VALID,24,VALID,0,
2009-05-08, 01:58:00,VALID,915.966,VALID,0,VALID,99.4547,VALID,-0.0679233,VALID,20.047,VALID,24,VALID,0,
2009-05-08, 01:59:00,VALID,915.922,VALID,0,VALID,99.4471,VALID,-0.0509425,VALID,20.0113,VALID,24,VALID,0,
2009-05-08, 02:00:00,VALID,915.897,VALID,0,VALID,99.498,VALID,0,VALID,19.9848,VALID,108,VALID,0,
2009-05-08, 02:01:00,VALID,915.855,VALID,0,VALID,99.5247,VALID,-0.0339617,VALID,19.9531,VALID,133,VALID,0,
2009-05-08, 02:02:00,VALID,915.829,VALID,0,VALID,99.5285,VALID,-0.0339617,VALID,19.9272,VALID,133,VALID,0,
2009-05-08, 02:03:00,VALID,915.796,VALID,0,VALID,99.5819,VALID,-0.0339617,VALID,19.9015,VALID,133,VALID,0,
2009-05-08, 02:04:00,VALID,915.766,VALID,0,VALID,99.8006,VALID,-0.0339617,VALID,19.8785,VALID,133,VALID,0.0715554,
2009-05-08, 02:05:00,VALID,915.742,VALID,0,VALID,99.9214,VALID,-0.0509425,VALID,19.8655,VALID,133,VALID,0.133557,
2009-05-08, 02:06:00,VALID,915.693,VALID,0,VALID,99.9443,VALID,-0.0169808,VALID,19.8358,VALID,133,VALID,0,
2009-05-08, 02:07:00,VALID,915.675,VALID,0,VALID,99.9868,VALID,-0.0169808,VALID,19.8104,VALID,133,VALID,0,
2009-05-08, 02:08:00,VALID,915.655,VALID,0,VALID,100,VALID,0,VALID,19.7772,VALID,133,VALID,0,
2009-05-08, 02:09:00,VALID,915.648,VALID,0,VALID,100,VALID,-0.0509425,VALID,19.7747,VALID,133,VALID,0,
2009-05-08, 02:10:00,VALID,915.627,VALID,0,VALID,100,VALID,-0.0679233,VALID,19.7814,VALID,133,VALID,0,
2009-05-08, 02:11:00,VALID,915.634,VALID,0,VALID,100,VALID,-0.0169808,VALID,19.7777,VALID,133,VALID,0,
2009-05-08, 02:12:00,VALID,915.639,VALID,0,VALID,100,VALID,-0.0169808,VALID,19.7644,VALID,133,VALID,0,
2009-05-08, 02:13:00,VALID,915.637,VALID,0,VALID,99.9939,VALID,0,VALID,19.7352,VALID,133,VALID,0,
2009-05-08, 02:14:00,VALID,915.625,VALID,0,VALID,99.8451,VALID,-0.0339617,VALID,19.6833,VALID,133,VALID,0,
2009-05-08, 02:15:00,VALID,915.619,VALID,0,VALID,99.8919,VALID,-0.0169808,VALID,19.6347,VALID,133,VALID,0,
2009-05-08, 02:16:00,VALID,915.634,VALID,0,VALID,100,VALID,-0.0169808,VALID,19.602,VALID,105,VALID,0,
2009-05-08, 02:17:00,VALID,915.629,VALID,0,VALID,100,VALID,0,VALID,19.56,VALID,41,VALID,0.000976563,
2009-05-08, 02:18:00,VALID,915.641,VALID,0,VALID,100,VALID,-0.0339617,VALID,19.573,VALID,21,VALID,0.00762649,
2009-05-08, 02:19:00,VALID,915.635,VALID,0,VALID,100,VALID,0,VALID,19.6122,VALID,12,VALID,0,
2009-05-08, 02:20:00,VALID,915.615,VALID,0,VALID,100,VALID,-0.0169808,VALID,19.6249,VALID,12,VALID,0,
2009-05-08, 02:21:00,VALID,915.605,VALID,0,VALID,100,VALID,-0.0339617,VALID,19.6317,VALID,12,VALID,0,
2009-05-08, 02:22:00,VALID,915.57,VALID,0,VALID,100,VALID,-0.0339617,VALID,19.6157,VALID,12,VALID,0,
2009-05-08, 02:23:00,VALID,915.541,VALID,0,VALID,100,VALID,-0.0339617,VALID,19.6022,VALID,12,VALID,0,
2009-05-08, 02:24:00,VALID,915.5,VALID,0,VALID,100,VALID,-0.101885,VALID,19.6162,VALID,12,VALID,0,
2009-05-08, 02:25:00,VALID,915.464,VALID,0,VALID,100,VALID,-0.0849042,VALID,19.5935,VALID,27,VALID,0,
2009-05-08, 02:26:00,VALID,915.434,VALID,0,VALID,100,VALID,-0.101885,VALID,19.6094,VALID,35,VALID,0,
2009-05-08, 02:27:00,VALID,915.391,VALID,0,VALID,100,VALID,-0.0679233,VALID,19.6219,VALID,44,VALID,0,
2009-05-08, 02:28:00,VALID,915.361,VALID,0,VALID,100,VALID,-0.0509425,VALID,19.6771,VALID,44,VALID,0,
2009-05-08, 02:29:00,VALID,915.34,VALID,0,VALID,100,VALID,-0.0509425,VALID,19.716,VALID,48,VALID,0,
2009-05-08, 02:30:00,VALID,915.332,VALID,0,VALID,100,VALID,-0.0509425,VALID,19.7712,VALID,50,VALID,0.000952744,
2009-05-08, 02:31:00,VALID,915.309,VALID,0,VALID,100,VALID,-0.0509425,VALID,19.8166,VALID,21,VALID,0.0334821,
2009-05-08, 02:32:00,VALID,915.293,VALID,0,VALID,100,VALID,-0.0509425,VALID,19.8496,VALID,22,VALID,0,
2009-05-08, 02:33:00,VALID,915.264,VALID,0,VALID,100,VALID,-0.0509425,VALID,19.8655,VALID,27,VALID,0.00114329,
2009-05-08, 02:34:00,VALID,915.236,VALID,0,VALID,100,VALID,-0.0849042,VALID,19.8486,VALID,27,VALID,0,
2009-05-08, 02:35:00,VALID,915.226,VALID,0,VALID,99.9939,VALID,-0.0509425,VALID,19.8595,VALID,27,VALID,0,
2009-05-08, 02:36:00,VALID,915.218,VALID,0,VALID,99.8731,VALID,-0.0509425,VALID,19.8229,VALID,27,VALID,0,
2009-05-08, 02:37:00,VALID,915.198,VALID,0,VALID,99.9184,VALID,-0.0339617,VALID,19.8001,VALID,27,VALID,0,
2009-05-08, 02:38:00,VALID,915.214,VALID,0,VALID,100,VALID,-0.0339617,VALID,19.8001,VALID,29,VALID,0,
2009-05-08, 02:39:00,VALID,915.219,VALID,0,VALID,100,VALID,0.0509425,VALID,19.7956,VALID,29,VALID,0,
2009-05-08, 02:40:00,VALID,915.242,VALID,0,VALID,100,VALID,0.0169808,VALID,19.8024,VALID,29,VALID,0,
2009-05-08, 02:41:00,VALID,915.249,VALID,0,VALID,99.9652,VALID,0.0509425,VALID,19.7797,VALID,29,VALID,0,
2009-05-08, 02:42:00,VALID,915.257,VALID,0,VALID,99.8566,VALID,-0.0509425,VALID,19.7582,VALID,29,VALID,0,
2009-05-08, 02:43:00,VALID,915.262,VALID,0,VALID,99.7993,VALID,-0.0679233,VALID,19.729,VALID,29,VALID,0,
2009-05-08, 02:44:00,VALID,915.262,VALID,0,VALID,99.7777,VALID,-0.0849042,VALID,19.6998,VALID,29,VALID,0,
2009-05-08, 02:45:00,VALID,915.244,VALID,0,VALID,99.9171,VALID,-0.0509425,VALID,19.6898,VALID,29,VALID,0,
2009-05-08, 02:46:00,VALID,915.243,VALID,0,VALID,100,VALID,-0.0849042,VALID,19.6833,VALID,29,VALID,0,
2009-05-08, 02:47:00,VALID,915.226,VALID,0,VALID,100,VALID,-0.0509425,VALID,19.6928,VALID,29,VALID,0,
2009-05-08, 02:48:00,VALID,915.245,VALID,0,VALID,100,VALID,-0.0679233,VALID,19.6838,VALID,29,VALID,0,
2009-05-08, 02:49:00,VALID,915.245,VALID,0,VALID,100,VALID,-0.0679233,VALID,19.6287,VALID,29,VALID,0,
2009-05-08, 02:50:00,VALID,915.248,VALID,0,VALID,100,VALID,-0.0679233,VALID,19.5897,VALID,29,VALID,0,
2009-05-08, 02:51:00,VALID,915.256,VALID,0,VALID,100,VALID,-0.101885,VALID,19.5703,VALID,29,VALID,0,
2009-05-08, 02:52:00,VALID,915.244,VALID,0,VALID,100,VALID,-0.0849042,VALID,19.5476,VALID,29,VALID,0,
2009-05-08, 02:53:00,VALID,915.238,VALID,0,VALID,100,VALID,-0.0509425,VALID,19.5181,VALID,29,VALID,0,
2009-05-08, 02:54:00,VALID,915.254,VALID,0,VALID,100,VALID,-0.0679233,VALID,19.4949,VALID,29,VALID,0,
2009-05-08, 02:55:00,VALID,915.263,VALID,0,VALID,100,VALID,-0.0849042,VALID,19.4632,VALID,29,VALID,0,
2009-05-08, 02:56:00,VALID,915.279,VALID,0,VALID,100,VALID,-0.0849042,VALID,19.463,VALID,29,VALID,0,
2009-05-08, 02:57:00,VALID,915.299,VALID,0,VALID,100,VALID,-0.0509425,VALID,19.4984,VALID,29,VALID,0,
2009-05-08, 02:58:00,VALID,915.313,VALID,0,VALID,100,VALID,-0.0169808,VALID,19.5376,VALID,29,VALID,0,
2009-05-08, 02:59:00,VALID,915.329,VALID,0,VALID,100,VALID,-0.0679233,VALID,19.5149,VALID,21,VALID,0,
2009-05-08, 03:00:00,VALID,915.327,VALID,0,VALID,100,VALID,-0.0509425,VALID,19.4857,VALID,257,VALID,0,
2009-05-08, 03:01:00,VALID,915.314,VALID,0,VALID,100,VALID,-0.0679233,VALID,19.4659,VALID,252,VALID,0,
2009-05-08, 03:02:00,VALID,915.301,VALID,0,VALID,100,VALID,-0.0849042,VALID,19.4949,VALID,252,VALID,0,
2009-05-08, 03:03:00,VALID,915.277,VALID,0,VALID,100,VALID,-0.0849042,VALID,19.5144,VALID,252,VALID,0,
2009-05-08, 03:04:00,VALID,915.286,VALID,0,VALID,100,VALID,-0.0339617,VALID,19.5111,VALID,252,VALID,0,
2009-05-08, 03:05:00,VALID,915.315,VALID,0,VALID,100,VALID,0,VALID,19.4368,VALID,252,VALID,0,
2009-05-08, 03:06:00,VALID,915.333,VALID,0,VALID,100,VALID,0,VALID,19.4235,VALID,252,VALID,0,
2009-05-08, 03:07:00,VALID,915.347,VALID,0,VALID,100,VALID,0.0169808,VALID,19.3746,VALID,252,VALID,0,
2009-05-08, 03:08:00,VALID,915.362,VALID,0,VALID,100,VALID,-0.0679233,VALID,19.3719,VALID,252,VALID,0,
2009-05-08, 03:09:00,VALID,915.352,VALID,0,VALID,100,VALID,-0.101885,VALID,19.3756,VALID,252,VALID,0,
2009-05-08, 03:10:00,VALID,915.353,VALID,0,VALID,100,VALID,-0.101885,VALID,19.3307,VALID,252,VALID,0,
2009-05-08, 03:11:00,VALID,915.335,VALID,0,VALID,100,VALID,-0.101885,VALID,19.3107,VALID,252,VALID,0,
2009-05-08, 03:12:00,VALID,915.302,VALID,0,VALID,100,VALID,-0.101885,VALID,19.259,VALID,252,VALID,0,
2009-05-08, 03:13:00,VALID,915.291,VALID,0,VALID,100,VALID,-0.101885,VALID,19.259,VALID,252,VALID,0,
2009-05-08, 03:14:00,VALID,915.26,VALID,0,VALID,100,VALID,-0.0679233,VALID,19.2915,VALID,252,VALID,0,
2009-05-08, 03:15:00,VALID,915.244,VALID,0,VALID,100,VALID,-0.0849042,VALID,19.2788,VALID,252,VALID,0,
2009-05-08, 03:16:00,VALID,915.236,VALID,0,VALID,100,VALID,-0.101885,VALID,19.2553,VALID,252,VALID,0,
2009-05-08, 03:17:00,VALID,915.228,VALID,0,VALID,100,VALID,-0.0849042,VALID,19.2583,VALID,252,VALID,0,
2009-05-08, 03:18:00,VALID,915.217,VALID,0,VALID,100,VALID,-0.0509425,VALID,19.272,VALID,252,VALID,0,
2009-05-08, 03:19:00,VALID,915.19,VALID,0,VALID,100,VALID,-0.0849042,VALID,19.2551,VALID,252,VALID,0,
2009-05-08, 03:20:00,VALID,915.172,VALID,0,VALID,100,VALID,-0.0679233,VALID,19.3204,VALID,252,VALID,0,
2009-05-08, 03:21:00,VALID,915.156,VALID,0,VALID,100,VALID,-0.0679233,VALID,19.3654,VALID,252,VALID,0,
2009-05-08, 03:22:00,VALID,915.134,VALID,0,VALID,100,VALID,-0.0679233,VALID,19.3918,VALID,252,VALID,0,
2009-05-08, 03:23:00,VALID,915.108,VALID,0,VALID,100,VALID,-0.0679233,VALID,19.4173,VALID,252,VALID,0,
2009-05-08, 03:24:00,VALID,915.099,VALID,0,VALID,100,VALID,-0.0849042,VALID,19.4532,VALID,252,VALID,0,
2009-05-08, 03:25:00,VALID,915.106,VALID,0,VALID,100,VALID,-0.0679233,VALID,19.4567,VALID,252,VALID,0,
2009-05-08, 03:26:00,VALID,915.102,VALID,0,VALID,100,VALID,-0.0339617,VALID,19.4597,VALID,252,VALID,0,
2009-05-08, 03:27:00,VALID,915.113,VALID,0,VALID,100,VALID,-0.101885,VALID,19.4183,VALID,252,VALID,0,
2009-05-08, 03:28:00,VALID,915.109,VALID,0,VALID,100,VALID,-0.0849042,VALID,19.3856,VALID,252,VALID,0,
2009-05-08, 03:29:00,VALID,915.105,VALID,0,VALID,100,VALID,-0.0679233,VALID,19.3664,VALID,252,VALID,0,
2009-05-08, 03:30:00,VALID,915.096,VALID,0,VALID,100,VALID,-0.118866,VALID,19.3045,VALID,252,VALID,0,
2009-05-08, 03:31:00,VALID,915.103,VALID,0,VALID,100,VALID,-0.101885,VALID,19.2204,VALID,252,VALID,0,
2009-05-08, 03:32:00,VALID,915.102,VALID,0,VALID,100,VALID,-0.0679233,VALID,19.1747,VALID,252,VALID,0,
2009-05-08, 03:33:00,VALID,915.094,VALID,0,VALID,100,VALID,-0.0679233,VALID,19.2139,VALID,252,VALID,0,
2009-05-08, 03:34:00,VALID,915.098,VALID,0,VALID,100,VALID,-0.0849042,VALID,19.1972,VALID,252,VALID,0,
2009-05-08, 03:35:00,VALID,915.082,VALID,0,VALID,100,VALID,-0.0849042,VALID,19.1972,VALID,252,VALID,0,
2009-05-08, 03:36:00,VALID,915.075,VALID,0,VALID,100,VALID,-0.0509425,VALID,19.1737,VALID,252,VALID,0,
2009-05-08, 03:37:00,VALID,915.064,VALID,0,VALID,100,VALID,-0.101885,VALID,19.1747,VALID,246,VALID,0,
2009-05-08, 03:38:00,VALID,915.042,VALID,0,VALID,100,VALID,-0.0849042,VALID,19.1323,VALID,241,VALID,0,
2009-05-08, 03:39:00,VALID,915.022,VALID,0,VALID,100,VALID,-0.0849042,VALID,19.0831,VALID,241,VALID,0,
2009-05-08, 03:40:00,VALID,915,VALID,0,VALID,100,VALID,-0.0849042,VALID,19.0377,VALID,237,VALID,0,
2009-05-08, 03:41:00,VALID,914.99,VALID,0,VALID,100,VALID,-0.0339617,VALID,19.0577,VALID,163,VALID,0,
2009-05-08, 03:42:00,VALID,914.95,VALID,0,VALID,100,VALID,-0.0679233,VALID,19.1121,VALID,142,VALID,0,
2009-05-08, 03:43:00,VALID,914.949,VALID,0,VALID,100,VALID,-0.0509425,VALID,19.1223,VALID,141,VALID,0,
2009-05-08, 03:44:00,VALID,914.933,VALID,0,VALID,100,VALID,-0.0849042,VALID,19.0734,VALID,141,VALID,0,
2009-05-08, 03:45:00,VALID,914.922,VALID,0,VALID,100,VALID,-0.0849042,VALID,19.0514,VALID,141,VALID,0,
2009-05-08, 03:46:00,VALID,914.906,VALID,0,VALID,100,VALID,-0.101885,VALID,19.0157,VALID,141,VALID,0,
2009-05-08, 03:47:00,VALID,914.881,VALID,0,VALID,100,VALID,-0.101885,VALID,18.9958,VALID,139,VALID,0,
2009-05-08, 03:48:00,VALID,914.882,VALID,0,VALID,100,VALID,-0.101885,VALID,18.9414,VALID,136,VALID,0,
2009-05-08, 03:49:00,VALID,914.866,VALID,0,VALID,100,VALID,-0.0509425,VALID,18.98,VALID,99,VALID,0,
2009-05-08, 03:50:00,VALID,914.848,VALID,0,VALID,100,VALID,-0.0679233,VALID,19.0871,VALID,96,VALID,0,